Location: Sternwarte auf dem Internationalen Platz Vogelsang IP
(50.5721°N, 6.4398°E)
Time: 17:48:20
(UTC+01:00)

Transit 2A Rocket - Pass Details

Date: 12 December 2025
Orbit: 581 x 903 km, 66.7° (Epoch: 16 January)

Event Time Altitude Azimuth Distance (km) Brightness Sun altitude
Rises 12:23:01 0° 279° (W) 3,432 8.3 16.3°
Reaches altitude 10° 12:26:09 10° 296° (WNW) 2,536 7.5 16.3°
Maximum altitude 12:30:27 20° 343° (NNW) 1,949 6.7 16.3°
Drops below altitude 10° 12:34:49 10° 29° (NNE) 2,591 7.3 16.3°
Sets 12:38:05 0° 46° (NE) 3,530 8.0 16.3°
